Location: STAR School
(35.3054°N, 111.2976°W)
Time: 15:03:00
(UTC-07:00)

Transit 2A - Pass Details

Date: 31 May 2019
Orbit: 593 x 966 km, 66.7° (Epoch: 23 June)

Event Time Altitude Azimuth Distance (km) Brightness Sun altitude
Rises 03:58:10 0° 155° (SSE) 3,511 9.3 -13.4°
Reaches altitude 10° 04:01:55 10° 131° (SE) 2,630 8.9 -12.8°
Maximum altitude 04:04:59 14° 101° (ESE) 2,372 9.1 -12.3°
Drops below altitude 10° 04:08:06 10° 72° (ENE) 2,692 10.1 -11.8°
Sets 04:12:00 0° 49° (NE) 3,653 11.7 -11.2°
